Morelia, Mexico

3:18 PM CDT on September 26, 2017 (GMT -0500)
Gen Francisco J Mujica International

Weather History for MMMM - October, 2012

Change the Weather History Date:

Saturday, October 13, 2012

  Actual Average Record
Temperature  
Mean Temperature 67 °F -  
Max Temperature 83 °F 76 °F 84 °F (2015)
Min Temperature 51 °F 50 °F 46 °F (1996)
Cooling Degree Days 2    
Growing Degree Days 17 (Base 50)    
Moisture  
Dew Point 58 °F    
Average Humidity 77    
Maximum Humidity 100    
Minimum Humidity 33    
Precipitation  
Precipitation 0.00 in 0.05 in - ()
Sea Level Pressure  
Sea Level Pressure 30.08 in    
Wind  
Wind Speed 1 mph ()    
Max Wind Speed 10 mph    
Max Gust Speed -    
Visibility 6.0 miles    
Events Fog , Rain    
Averages and records for this station are not official NWS values.
T = Trace of Precipitation, MM = Missing Value Source: Averaged Metar Reports

Daily Weather History Graph

Daily Weather History Graph

Search for Another Location

Airport or City:

Trip Planner

Search our weather history database for the weather conditions in past years. The results will help you decide how hot, cold, wet, or windy it might be!

Date:

Astronomy

Oct. 13, 2012 Rise Set
Actual Time 7:38 AM CDT 7:21 PM CDT
Civil Twilight 7:16 AM CDT 7:43 PM CDT
Nautical Twilight 6:50 AM CDT 8:09 PM CDT
Astronomical Twilight 6:24 AM CDT 8:35 PM CDT
Moon 5:42 AM CDT (10/13) 5:59 PM CDT (10/13)
Length of Visible Light 12h 27m
Length of Day
11h 43m
Waning Crescent, 5% of the Moon is Illuminated
Oct 13
Waning Crescent
Oct 15
New
Oct 21
First Quarter
Oct 29
Full
Nov 6
Last Quarter

Hourly Weather History & Observations

Time (CDT) Temp. Heat Index Dew Point Humidity Pressure Visibility Wind Dir Wind Speed Gust Speed Precip Events Conditions
12:47 AM 59.0 °F - 57.2 °F 94% 29.85 in 5.0 mi Calm Calm - N/A   Overcast
12:50 AM 61 °F - 58 °F 87% 29.89 in 5 mi ESE 2.2 mph - - Rain Light Drizzle
1:44 AM 59.0 °F - 57.2 °F 94% 30.31 in 5.0 mi Calm Calm - N/A   Mostly Cloudy
2:43 AM 55.4 °F - 55.4 °F 100% 30.30 in 1.0 mi Calm Calm - N/A   Scattered Clouds
3:45 AM 55.4 °F - 55.4 °F 100% 29.85 in 2.0 mi Calm Calm - N/A   Clear
3:50 AM 60 °F - 58 °F 92% 29.93 in 5 mi ESE 2.2 mph - -   Partly Cloudy
4:42 AM 53.6 °F - 53.6 °F 100% 30.27 in 2.0 mi Calm Calm - N/A   Clear
5:45 AM 53.6 °F - 53.6 °F 100% 30.28 in 2.0 mi Calm Calm - N/A   Clear
6:50 AM 59 °F - 57 °F 92% 29.98 in 5 mi South 2.2 mph - -   Partly Cloudy
6:54 AM 51.8 °F - 51.8 °F 100% 29.94 in 3.0 mi Calm Calm - N/A   Scattered Clouds
7:45 AM 53.6 °F - 53.6 °F 100% 30.31 in 5.0 mi Calm Calm - N/A Fog Patches of Fog
8:45 AM 57.2 °F - 57.2 °F 100% 30.33 in 5.0 mi Calm Calm - N/A   Clear
9:26 AM 62.6 °F - 59.0 °F 88% 30.33 in 5.0 mi Calm Calm - N/A   Clear
9:53 AM 64.4 °F - 59.0 °F 83% 29.94 in 5.0 mi Calm Calm - N/A   Scattered Clouds
9:55 AM 63 °F - 60 °F 86% 30.03 in 6 mi North 4.5 mph - -   Partly Cloudy
10:45 AM 64.4 °F - 59.0 °F 83% 30.34 in 5.0 mi Calm Calm - N/A   Mostly Cloudy
11:45 AM 69.8 °F - 57.2 °F 64% 30.34 in 6.0 mi Calm Calm - N/A   Scattered Clouds
12:45 PM 78 °F - 62 °F 49% 30.01 in 9 mi North 4.5 mph - -   Partly Cloudy
12:47 PM 73.4 °F - 59.0 °F 61% 29.89 in 7.0 mi SSE 5.8 mph - N/A   Scattered Clouds
1:41 PM 75.2 °F - 59.0 °F 57% 30.26 in 8.0 mi West 3.5 mph - N/A   Scattered Clouds
2:40 PM 78.8 °F - 57.2 °F 47% 30.23 in 8.0 mi Calm Calm - N/A   Scattered Clouds
3:46 PM 80.6 °F 80.5 °F 55.4 °F 42% 29.76 in 8.0 mi Calm Calm - N/A   Mostly Cloudy
3:50 PM 80 °F - 56 °F 33% 29.81 in 7 mi ENE 4.5 mph - -   Partly Cloudy
4:46 PM 80.6 °F 80.5 °F 55.4 °F 42% 30.16 in 8.0 mi Calm Calm - N/A   Mostly Cloudy
5:48 PM 80.6 °F 80.3 °F 53.6 °F 39% 30.16 in 8.0 mi Calm Calm - N/A   Mostly Cloudy
6:50 PM 76 °F - 58 °F 43% 29.72 in 7 mi ESE 4.5 mph - -   Partly Cloudy
6:50 PM 73.4 °F - 60.8 °F 65% 29.78 in 8.0 mi Calm Calm - N/A   Mostly Cloudy
7:33 PM 68.0 °F - 60.8 °F 78% 30.17 in 8.0 mi Calm Calm - N/A   Mostly Cloudy
7:47 PM 68.0 °F - 60.8 °F 78% 30.19 in 8.0 mi Calm Calm - N/A   Mostly Cloudy
8:41 PM 68.0 °F - 60.8 °F 78% 30.20 in 7.0 mi Calm Calm - N/A   Mostly Cloudy
9:43 PM 68.0 °F - 60.8 °F 78% 29.79 in 7.0 mi Variable 3.5 mph - N/A   Mostly Cloudy
9:50 PM 68 °F - 62 °F 74% 29.78 in 11 mi SW 2.2 mph - -   Partly Cloudy
10:43 PM 64.4 °F - 60.8 °F 88% 30.26 in 7.0 mi SW 5.8 mph - N/A   Scattered Clouds
11:45 PM 64.4 °F - 60.8 °F 88% 30.26 in 7.0 mi SW 10.4 mph - N/A   Scattered Clouds